Regional Weather Roundup
Issued by NWS

Home | Current Version | Previous Version | Graphics & Text | Print | Product List | Glossary On
Versions: 1 2 3 4 5 6 7 8 9 10 11 12 13 14 15 16 17 18 19 20 21 22 23 24 25 26 27 28 29 30 31 32 33 34 35 36 37 38 39 40 41 42 43 44 45 46 47 48 49 50
000
ASUS43 KLMK 161202
RWRKY
KENTUCKY REGIONAL WEATHER ROUNDUP
NATIONAL WEATHER SERVICE LOUISVILLE KY
800 AM EDT WED AUG 16 2017

NOTE "FAIR" INDICATES FEW OR NO CLOUDS BELOW 12,000 FEET
WITH NO SIGNIFICANT WEATHER AND/OR OBSTRUCTIONS TO VISIBILITY.

KYZ001>023-026-027-061>063-070>075-161300-
WESTERN AND SOUTH CENTRAL KENTUCKY

CITY           SKY/WX    TMP DP  RH WIND       PRES   REMARKS
PADUCAH        MOCLDY    73  71  93 S5        29.98R
HENDERSON      PTCLDY    71  70  96 CALM      30.00R
OWENSBORO      MOCLDY    72  70  93 S5        30.01R
HOPKINSVILLE   PTCLDY    73  72  96 CALM      30.01R
BOWLING GREEN  MOSUNNY   74  72  93 CALM      30.03R
GLASGOW        PTSUNNY   72  72 100 CALM      30.04R
$$

KYZ024-025-028>034-038-045-046-053-161300-
NORTH CENTRAL KENTUCKY

CITY           SKY/WX    TMP DP  RH WIND       PRES   REMARKS
LOUISVILLE/SDF PTSUNNY   75  71  87 SE3       30.02R FOG
LOUISVILLE/LOU CLOUDY    75  73  93 SE3       30.03R FOG
FORT KNOX      NOT AVBL
$$

KYZ035>037-039>044-047>052-055>060-089>105-161300-
NORTHEAST KENTUCKY

CITY           SKY/WX    TMP DP  RH WIND       PRES   REMARKS
LEXINGTON      SUNNY     72  69  90 SE3       30.06R FOG
COVINGTON      MOSUNNY   71  69  93 CALM      30.04R
FRANKFORT      PTSUNNY   70  67  90 CALM      30.04R FOG
$$

KYZ054-064>069-076>088-106>120-161300-
SOUTHEAST KENTUCKY

CITY           SKY/WX    TMP DP  RH WIND       PRES   REMARKS
JACKSON        FOG       69  68  96 CALM      30.09R VSB 1/4
LONDON         CLOUDY    69  68  96 SE3       30.08R FOG
SOMERSET       NOT AVBL
MIDDLESBORO    CLOUDY    69  69 100 CALM      30.10R FOG
MONTICELLO     CLOUDY    70  70 100 W12       30.09R
$$





USA.gov is the U.S. government's official web portal to all federal, state and local government web resources and services.